DEFMA EDDG-EDDG

Flight info

Callsign DEFMA
Flight time 0h 13m
Altitude 2000
Route VFR
Aircraft DA40/L-S/L

Departure

Time 2026-05-08 17:38
Airport Münster Osnabrück Airport (EDDG)

Arrival

Time 2026-05-08 17:52
Airport Münster Osnabrück Airport (EDDG)
Time Latitude Longitude Altitude Speed Heading
2026-05-08 17:27 52.13106 7.68242 161 ft 0 kts 98°
2026-05-08 17:35 52.13105 7.68267 161 ft 5 kts 92°
2026-05-08 17:35 52.13105 7.68325 161 ft 6 kts 90°
2026-05-08 17:35 52.13128 7.68391 161 ft 8 kts 351°
2026-05-08 17:35 52.13190 7.68356 161 ft 11 kts 340°
2026-05-08 17:36 52.13270 7.68312 161 ft 12 kts 341°
2026-05-08 17:36 52.13350 7.68268 162 ft 10 kts 340°
2026-05-08 17:36 52.13402 7.68237 162 ft 6 kts 349°
2026-05-08 17:36 52.13414 7.68246 162 ft 0 kts 72°
2026-05-08 17:37 52.13429 7.68313 163 ft 26 kts 70°
2026-05-08 17:37 52.13544 7.68861 169 ft 71 kts 70°
2026-05-08 17:38 52.13711 7.69663 351 ft 76 kts 70°
2026-05-08 17:38 52.13892 7.70513 512 ft 83 kts 72°
2026-05-08 17:38 52.14088 7.71371 764 ft 81 kts 68°
2026-05-08 17:38 52.14612 7.71785 937 ft 97 kts 356°
2026-05-08 17:39 52.15233 7.71352 1156 ft 99 kts 340°
2026-05-08 17:39 52.15809 7.70662 1200 ft 113 kts 303°
2026-05-08 17:39 52.15803 7.69407 1237 ft 116 kts 245°
2026-05-08 17:39 52.15536 7.68109 1194 ft 126 kts 251°
2026-05-08 17:40 52.15251 7.66740 1169 ft 128 kts 248°
2026-05-08 17:40 52.14959 7.65348 1104 ft 133 kts 249°
2026-05-08 17:40 52.14609 7.64008 1067 ft 122 kts 227°
2026-05-08 17:40 52.13910 7.63547 1017 ft 104 kts 167°
2026-05-08 17:41 52.13264 7.63845 924 ft 89 kts 154°
2026-05-08 17:41 52.12802 7.64336 794 ft 76 kts 119°
2026-05-08 17:41 52.12754 7.65161 602 ft 75 kts 73°
2026-05-08 17:41 52.12923 7.65913 408 ft 72 kts 73°
2026-05-08 17:42 52.13078 7.66655 242 ft 67 kts 70°
2026-05-08 17:42 52.13226 7.67355 163 ft 61 kts 72°
2026-05-08 17:42 52.13339 7.67889 160 ft 55 kts 72°
2026-05-08 17:42 52.13503 7.68670 208 ft 85 kts 70°
2026-05-08 17:43 52.13703 7.69564 482 ft 82 kts 71°
2026-05-08 17:43 52.13908 7.70454 760 ft 84 kts 71°
2026-05-08 17:43 52.14112 7.71300 1026 ft 82 kts 60°
2026-05-08 17:43 52.14685 7.71534 1219 ft 97 kts 348°
2026-05-08 17:44 52.15351 7.71106 1243 ft 108 kts 346°
2026-05-08 17:44 52.15839 7.70154 1230 ft 123 kts 276°
2026-05-08 17:44 52.15634 7.68815 1225 ft 125 kts 247°
2026-05-08 17:44 52.15345 7.67462 1225 ft 128 kts 249°
2026-05-08 17:45 52.15065 7.66086 1139 ft 127 kts 249°
2026-05-08 17:45 52.14746 7.64770 1082 ft 122 kts 239°
2026-05-08 17:45 52.14156 7.63921 1019 ft 107 kts 196°
2026-05-08 17:45 52.13492 7.63950 986 ft 87 kts 153°
2026-05-08 17:46 52.12980 7.64352 795 ft 80 kts 144°
2026-05-08 17:46 52.12740 7.65069 599 ft 76 kts 77°
2026-05-08 17:46 52.12905 7.65825 431 ft 73 kts 74°
2026-05-08 17:46 52.13063 7.66587 266 ft 69 kts 71°
2026-05-08 17:47 52.13211 7.67287 160 ft 55 kts 71°
2026-05-08 17:47 52.13319 7.67786 159 ft 54 kts 69°
2026-05-08 17:47 52.13479 7.68551 226 ft 80 kts 71°
2026-05-08 17:47 52.13601 7.69130 404 ft 80 kts 71°
2026-05-08 17:48 52.13832 7.70272 788 ft 82 kts 74°
2026-05-08 17:48 52.14007 7.71156 1034 ft 83 kts 70°
2026-05-08 17:48 52.14511 7.71583 1230 ft 99 kts 355°
2026-05-08 17:48 52.15218 7.71243 1197 ft 111 kts 347°
2026-05-08 17:49 52.15823 7.70432 1198 ft 124 kts 292°
2026-05-08 17:49 52.15701 7.69075 1211 ft 123 kts 248°
2026-05-08 17:49 52.15417 7.67766 1256 ft 122 kts 247°
2026-05-08 17:49 52.15140 7.66456 1257 ft 123 kts 250°
2026-05-08 17:50 52.14876 7.65126 1232 ft 123 kts 249°
2026-05-08 17:50 52.14596 7.63818 1169 ft 121 kts 247°
2026-05-08 17:50 52.13978 7.63091 1075 ft 112 kts 178°
2026-05-08 17:50 52.13274 7.63439 1033 ft 102 kts 154°
2026-05-08 17:51 52.12746 7.63958 899 ft 80 kts 123°
2026-05-08 17:51 52.12685 7.64802 662 ft 76 kts 74°
2026-05-08 17:51 52.12859 7.65576 483 ft 69 kts 74°
2026-05-08 17:51 52.13006 7.66315 326 ft 66 kts 73°
2026-05-08 17:52 52.13156 7.67021 180 ft 66 kts 72°
2026-05-08 17:52 52.13274 7.67581 159 ft 45 kts 71°
2026-05-08 17:52 52.13593 7.69151 435 ft 81 kts 72°
2026-05-08 17:53 52.13787 7.70021 752 ft 79 kts 71°
2026-05-08 17:53 52.13981 7.70835 1061 ft 77 kts 71°
2026-05-08 17:53 52.14301 7.71558 1233 ft 90 kts 27°
2026-05-08 17:53 52.14986 7.71381 1203 ft 111 kts 346°
2026-05-08 17:54 52.15664 7.70730 1213 ft 122 kts 309°
2026-05-08 17:54 52.15802 7.69370 1192 ft 128 kts 249°
2026-05-08 17:54 52.15489 7.68019 1183 ft 129 kts 248°
2026-05-08 17:54 52.15209 7.66652 1174 ft 128 kts 249°
2026-05-08 17:55 52.14907 7.65278 1152 ft 126 kts 246°
2026-05-08 17:55 52.14458 7.64145 1080 ft 115 kts 206°
2026-05-08 17:55 52.13746 7.64090 877 ft 94 kts 160°
2026-05-08 17:55 52.13189 7.64406 766 ft 80 kts 150°
2026-05-08 17:56 52.12807 7.64981 588 ft 74 kts 108°
2026-05-08 17:56 52.12902 7.65779 417 ft 73 kts 73°
2026-05-08 17:56 52.13063 7.66566 246 ft 73 kts 67°
2026-05-08 17:56 52.13210 7.67281 161 ft 55 kts 71°
2026-05-08 17:57 52.13325 7.67824 160 ft 64 kts 71°
2026-05-08 17:57 52.13499 7.68646 263 ft 83 kts 71°
2026-05-08 17:57 52.13693 7.69542 547 ft 83 kts 73°
2026-05-08 17:57 52.13878 7.70417 806 ft 80 kts 73°
2026-05-08 17:58 52.14075 7.71262 1031 ft 81 kts 62°
2026-05-08 17:58 52.14621 7.71564 1218 ft 97 kts 346°
2026-05-08 17:58 52.15274 7.71140 1294 ft 104 kts 344°
2026-05-08 17:58 52.15825 7.70375 1235 ft 121 kts 285°
2026-05-08 17:59 52.15678 7.69020 1220 ft 122 kts 252°
2026-05-08 17:59 52.15432 7.67738 1228 ft 119 kts 249°
2026-05-08 17:59 52.15155 7.66509 1198 ft 112 kts 245°
2026-05-08 17:59 52.14889 7.65392 1143 ft 97 kts 246°
2026-05-08 18:00 52.14675 7.64385 1065 ft 94 kts 245°
2026-05-08 18:00 52.14157 7.62474 955 ft 90 kts 236°
2026-05-08 18:00 52.13893 7.61558 947 ft 91 kts 245°
2026-05-08 18:01 52.13702 7.60557 986 ft 92 kts 250°
2026-05-08 18:01 52.13485 7.59583 1012 ft 92 kts 243°
2026-05-08 18:01 52.13230 7.58607 1064 ft 95 kts 245°
2026-05-08 18:01 52.12966 7.57627 1112 ft 93 kts 227°
2026-05-08 18:02 52.12408 7.57401 1149 ft 84 kts 155°
2026-05-08 18:02 52.12036 7.57626 1150 ft 89 kts 151°
2026-05-08 18:02 52.11499 7.58600 1092 ft 94 kts 99°
2026-05-08 18:02 52.11601 7.59644 1007 ft 96 kts 70°
2026-05-08 18:03 52.11845 7.60631 913 ft 92 kts 74°
2026-05-08 18:03 52.12034 7.61622 832 ft 92 kts 75°
2026-05-08 18:03 52.12236 7.62550 732 ft 80 kts 72°
2026-05-08 18:03 52.12396 7.63387 645 ft 78 kts 74°
2026-05-08 18:04 52.12580 7.64249 584 ft 82 kts 74°
2026-05-08 18:04 52.12699 7.64818 507 ft 78 kts 74°
2026-05-08 18:04 52.12859 7.65602 380 ft 72 kts 73°
2026-05-08 18:04 52.13020 7.66374 266 ft 70 kts 71°
2026-05-08 18:05 52.13177 7.67125 167 ft 66 kts 71°
2026-05-08 18:05 52.13297 7.67687 160 ft 53 kts 71°
2026-05-08 18:05 52.13460 7.68460 198 ft 85 kts 71°
2026-05-08 18:05 52.13645 7.69382 448 ft 86 kts 72°
2026-05-08 18:06 52.13870 7.70315 640 ft 91 kts 70°
2026-05-08 18:06 52.14133 7.71298 787 ft 100 kts 64°
2026-05-08 18:06 52.14762 7.71717 930 ft 112 kts 346°
2026-05-08 18:06 52.15450 7.71220 1177 ft 108 kts 337°
2026-05-08 18:07 52.15780 7.70125 1213 ft 119 kts 264°
2026-05-08 18:07 52.15608 7.68789 1205 ft 123 kts 255°
2026-05-08 18:07 52.15389 7.67427 1193 ft 126 kts 248°
2026-05-08 18:07 52.15063 7.66092 1157 ft 128 kts 245°
2026-05-08 18:08 52.14744 7.64815 1107 ft 112 kts 248°
2026-05-08 18:08 52.14519 7.63677 994 ft 102 kts 249°
2026-05-08 18:08 52.14287 7.62616 940 ft 96 kts 248°
2026-05-08 18:08 52.14079 7.61659 926 ft 90 kts 245°
2026-05-08 18:09 52.13668 7.60932 862 ft 87 kts 199°
2026-05-08 18:09 52.13120 7.60901 866 ft 77 kts 153°
2026-05-08 18:09 52.12617 7.61245 848 ft 80 kts 147°
2026-05-08 18:09 52.12301 7.61936 798 ft 77 kts 105°
2026-05-08 18:10 52.12283 7.62827 712 ft 82 kts 78°
2026-05-08 18:10 52.12469 7.63718 666 ft 84 kts 71°
2026-05-08 18:10 52.12665 7.64618 585 ft 84 kts 75°
2026-05-08 18:10 52.12832 7.65469 446 ft 75 kts 72°
2026-05-08 18:11 52.12997 7.66277 313 ft 75 kts 72°
2026-05-08 18:11 52.13163 7.67058 174 ft 68 kts 70°
2026-05-08 18:11 52.13282 7.67629 160 ft 43 kts 70°
2026-05-08 18:11 52.13426 7.68303 168 ft 82 kts 70°
2026-05-08 18:12 52.13607 7.69193 428 ft 81 kts 73°
2026-05-08 18:12 52.13803 7.70051 700 ft 81 kts 70°
2026-05-08 18:12 52.13991 7.70928 921 ft 81 kts 74°
2026-05-08 18:12 52.14294 7.71668 1162 ft 87 kts 27°
2026-05-08 18:13 52.14888 7.71486 1443 ft 90 kts 344°
2026-05-08 18:13 52.15470 7.71116 1693 ft 90 kts 345°
2026-05-08 18:13 52.15911 7.70352 1884 ft 102 kts 281°
2026-05-08 18:13 52.15748 7.69226 2014 ft 106 kts 244°
2026-05-08 18:14 52.15396 7.68148 2011 ft 108 kts 214°
2026-05-08 18:14 52.14718 7.67853 2000 ft 102 kts 167°
2026-05-08 18:14 52.14033 7.68134 1986 ft 101 kts 159°
2026-05-08 18:14 52.13369 7.68433 1901 ft 91 kts 153°
2026-05-08 18:15 52.12754 7.68500 1683 ft 92 kts 190°
2026-05-08 18:15 52.12225 7.67930 1472 ft 93 kts 230°
2026-05-08 18:15 52.12005 7.66936 1264 ft 93 kts 252°
2026-05-08 18:15 52.12190 7.66006 1028 ft 89 kts 339°
2026-05-08 18:16 52.12707 7.65880 814 ft 72 kts 28°
2026-05-08 18:16 52.13042 7.66443 423 ft 72 kts 82°
2026-05-08 18:16 52.13189 7.67179 167 ft 62 kts 72°
2026-05-08 18:16 52.13307 7.67738 160 ft 59 kts 71°
2026-05-08 18:17 52.13474 7.68541 240 ft 83 kts 72°
2026-05-08 18:17 52.13655 7.69431 536 ft 82 kts 72°
2026-05-08 18:17 52.13855 7.70314 783 ft 82 kts 73°
2026-05-08 18:17 52.14044 7.71174 1017 ft 81 kts 72°
2026-05-08 18:18 52.14501 7.71684 1269 ft 92 kts
2026-05-08 18:18 52.15110 7.71274 1495 ft 97 kts 342°
2026-05-08 18:18 52.15703 7.70816 1752 ft 99 kts 314°
2026-05-08 18:18 52.15796 7.69741 1931 ft 100 kts 243°
2026-05-08 18:19 52.15528 7.68649 2007 ft 106 kts 234°
2026-05-08 18:19 52.14969 7.67919 2060 ft 102 kts 191°
2026-05-08 18:19 52.14280 7.67959 2058 ft 100 kts 162°
2026-05-08 18:19 52.13600 7.68261 2002 ft 102 kts 157°
2026-05-08 18:20 52.12979 7.68590 1817 ft 87 kts 156°
2026-05-08 18:20 52.12384 7.68637 1576 ft 91 kts 194°
2026-05-08 18:20 52.11991 7.67829 1328 ft 99 kts 257°
2026-05-08 18:20 52.11914 7.66743 1124 ft 95 kts 275°
2026-05-08 18:21 52.12314 7.66082 939 ft 81 kts 353°
2026-05-08 18:21 52.12839 7.66146 711 ft 74 kts 35°
2026-05-08 18:21 52.13107 7.66779 376 ft 68 kts 74°
2026-05-08 18:21 52.13250 7.67471 162 ft 56 kts 73°
2026-05-08 18:22 52.13354 7.67961 161 ft 43 kts 70°
2026-05-08 18:22 52.13451 7.68428 163 ft 41 kts 70°
2026-05-08 18:22 52.13539 7.68838 161 ft 37 kts 71°
2026-05-08 18:22 52.13623 7.69236 163 ft 36 kts 71°
2026-05-08 18:23 52.13697 7.69591 162 ft 29 kts 71°
2026-05-08 18:23 52.13755 7.69863 161 ft 22 kts 70°
2026-05-08 18:23 52.13733 7.70015 161 ft 13 kts 149°
2026-05-08 18:23 52.13646 7.70025 161 ft 13 kts 199°
2026-05-08 18:24 52.13594 7.69924 161 ft 8 kts 252°
2026-05-08 18:24 52.13589 7.69899 161 ft 0 kts 251°
2026-05-08 18:24 52.13589 7.69897 161 ft 3 kts 251°
2026-05-08 18:24 52.13569 7.69802 161 ft 13 kts 250°
2026-05-08 18:25 52.13537 7.69649 161 ft 16 kts 249°
2026-05-08 18:25 52.13497 7.69466 161 ft 18 kts 251°
2026-05-08 18:25 52.13457 7.69276 161 ft 18 kts 251°
2026-05-08 18:25 52.13417 7.69087 161 ft 18 kts 251°
2026-05-08 18:26 52.13371 7.68876 161 ft 22 kts 249°
2026-05-08 18:26 52.13320 7.68627 161 ft 24 kts 253°
2026-05-08 18:26 52.13268 7.68389 161 ft 18 kts 240°
2026-05-08 18:26 52.13188 7.68359 161 ft 12 kts 161°
2026-05-08 18:27 52.13130 7.68350 161 ft 7 kts 266°
2026-05-08 18:27 52.13129 7.68308 161 ft 0 kts 270°